Flag for Germany Weather past 2 weeks in Dresden, Saxony, Germany

Now
84 °F

Thundershowers. Scattered clouds.


Feels Like: 85 °F
Forecast: 54 / 69 °F
Wind: 6 mph from North

Location: Dresden-Klotzsche

Current Time: Sep 1, 2015 at 4:56:31 PM

Latest Report: Sep 1, 2015 at 4:20 PM


Visibility: N/A

Pressure: 29.71 "Hg

Humidity: 48%

Dew point: 63 °F

Location of DresdenLocation

Historic Weather in Dresden — Graph

°F

Dresden temperature yesterday

Maximum temperature yesterday: 91 °F (at 1:50 PM)
Minimum temperature yesterday: 66 °F (at 5:20 AM)
Average temperature yesterday: 79 °F

Past Weeks' High & Low Weather Summary

 TemperatureHumidityPressure
High91 °F (Aug 31, 1:50 PM)100% (Aug 17, 7:20 PM)30.30 "Hg (Aug 17, 7:20 PM)
Low50 °F (Aug 22, 5:50 AM)27% (Aug 22, 2:20 PM)29.74 "Hg (Aug 24, 6:20 PM)
Average67 °F70%30.03 "Hg
* Reported Aug 17 3:20 PM — Sep 1 3:20 PM, Dresden, Weather by CustomWeather, © 2015

Note: Actual official high and low records may vary slightly from our data, if they occured in-between our weather recording intervals... More about our weather records

Advertising

Dresden weather history for previous 24 hours

 ConditionsComfort  
Time TempWeatherWind HumidityBarometerVisibility
3:20 PM
Tue, Sep 1
86 °FPassing clouds.5 mph46%29.74 "HgN/A
2:50 PM86 °FPassing clouds.2 mph49%29.74 "HgN/A
2:20 PM86 °FPassing clouds.5 mph43%29.74 "HgN/A
1:50 PM84 °FPassing clouds.6 mph48%29.77 "HgN/A
1:20 PM82 °FPassing clouds.5 mph48%29.77 "HgN/A
12:50 PM81 °FPassing clouds.2 mph51%29.77 "HgN/A
12:20 PM81 °FPassing clouds.3 mph54%29.80 "HgN/A
11:50 AM79 °FSunny.3 mph58%29.80 "Hg10 mi
11:20 AM79 °FPassing clouds.5 mph58%29.80 "HgN/A
10:50 AM77 °FPassing clouds.5 mph61%29.80 "HgN/A
10:20 AM77 °FPassing clouds.6 mph57%29.80 "HgN/A
9:50 AM75 °FPassing clouds.7 mph57%29.80 "HgN/A
9:20 AM75 °FPassing clouds.8 mph57%29.80 "HgN/A
8:50 AM75 °FPassing clouds.7 mph57%29.80 "HgN/A
8:20 AM75 °FSunny.7 mph57%29.80 "Hg10 mi
7:50 AM72 °FSunny.5 mph73%29.80 "Hg10 mi
7:20 AM70 °FSunny.6 mph78%29.80 "Hg10 mi
6:50 AM68 °FClear.6 mph83%29.80 "Hg10 mi
6:20 AM68 °FClear.8 mph83%29.77 "Hg10 mi
5:50 AM68 °FClear.7 mph83%29.80 "Hg10 mi
4:50 AM70 °FClear.5 mph83%29.80 "Hg10 mi
4:20 AM72 °FClear.6 mph78%29.80 "Hg10 mi
3:50 AM72 °FClear.6 mph78%29.77 "Hg10 mi
3:20 AM72 °FClear.6 mph78%29.77 "Hg10 mi
2:50 AM73 °FClear.3 mph74%29.80 "Hg10 mi
2:20 AM75 °FClear.3 mph69%29.80 "Hg10 mi
1:50 AM75 °FPassing clouds.5 mph69%29.80 "HgN/A
1:20 AM77 °FPassing clouds.5 mph65%29.80 "HgN/A
12:50 AM79 °FPassing clouds.3 mph58%29.80 "HgN/A
12:20 AM79 °FThundershowers. Partly cloudy.5 mph61%29.80 "HgN/A
11:20 PM
Mon, Aug 31
79 °FThundershowers. Passing clouds.7 mph65%29.80 "HgN/A
10:50 PM81 °FPassing clouds.6 mph54%29.80 "HgN/A
10:20 PM81 °FClear.6 mph54%29.80 "Hg10 mi
9:50 PM81 °FClear.6 mph54%29.80 "Hg10 mi
9:20 PM82 °FClear.5 mph51%29.83 "Hg10 mi
8:50 PM81 °FPassing clouds.6 mph54%29.83 "HgN/A
8:20 PM82 °FPassing clouds.3 mph51%29.83 "HgN/A
7:50 PM84 °FPassing clouds.5 mph48%29.83 "HgN/A
7:20 PM86 °FSunny.3 mph49%29.83 "Hg10 mi
6:50 PM86 °FSunny.7 mph49%29.83 "Hg10 mi
6:20 PM88 °FPassing clouds.8 mph46%29.83 "HgN/A
5:50 PM90 °FPassing clouds.7 mph41%29.83 "HgN/A
5:20 PM90 °FPassing clouds.7 mph41%29.83 "HgN/A
4:50 PM91 °FPassing clouds.8 mph36%29.86 "HgN/A
4:20 PM91 °FPassing clouds.6 mph36%29.86 "HgN/A
Weather by CustomWeather, © 2015

See weather overviewHow to use our weather pages